Probability
0 0 0 0 0 0 0 0 0 0 0 0 0 0 0 0 0 0 0 0 0 0 0 0 0 0 0 0 0 0 0 0 0 0 0 0 0 0 0 0 0 0 0 0
0 0 0 0 0 0 0 0 0 0 0 0 0 0 0 0 0 0 0 0 0 0 0 0 0 0 0 0 0 0 0 0 0 0 0 0 0 0 0 0 0 0 0 0
0 0 0 0 0 0 0 0 0 0 0 0 0 0 0 0 0 0 0 0 0 0 0 0 0 0 0 0 0 0 0 0 0 0 0 0 0 0 0 0 0 0 0 0
0 0 0 0 0 0 0 0 0 0 0 0 0 0 0 0 0 0 0 0 0 0 0 0 0 0 0 0 0 0 0 0 0 0 0 0 0 0 0 0 0 0 0 0
0 0 0 0 0 0 0 0 0 0 0 0 0 0 0 0 0 0 0 0 0 0 0 0 0 0 0 0 0 0 0 0 0 0 0 0 0 0 0 0 0 0 0 0
0 0 0 0 0 0 0 0 0 0 0 0 0 0 0 0 0 0 0 0 0 0 0 0 0 0 0 0 0 0 0 0 0 0 0 0 0 0 0 0 0 0 0 0
0 0 0 0 0 0 0 0 0 0 0 0 0 0 0 0 0 0 0 0 0 0 0 0 0 0 0 0 0 0 0 0 0 0 0 0 0 0 0 0 0 0 0 0
0 0 0 0 0 0 0 0 0 0 0 0 0 0 0 0 0 0 0 0 0 0 0 0 0 0 0 0 0 0 0 0 0 0 0 0 0 0 0 0 0 0 0 0
0 0 0 0 0 0 0 0 0 0 0 0 0 0 0 0 0 0 0 0 0 0 0 0 0 0 0 0 0 0 0 0 0 0 0 0 0 0 0 0 0 0 0 0
0 0 0 0 0 0 0 0 0 0 0 0 0 0 0 0 0 0 0 0 0 0 0 0 0 0 0 0 0 0 0 0 0 0 0 0 0 0 0 0 0 0 0 0
0 0 0 0 0 0 0 0 0 0 0 0 0 0 0 0 0 0 0 0 0 0 0 0 0 0 0 0 0 0 0 0 0 0 0 0 0 0 0 0 0 0 0 0
0 0 0 0 0 0 0 0 0 0 0 0 0 0 0 0 0 0 0 0 0 0 0 0 0 0 0 0 0 0 0 0 0 0 0 0 0 0 0 0 0 0 0 0
0 0 0 0 0 0 0 0 0 0 0 0 0 0 0 0 0 0 0 0 0 0 0 0 0 0 0 0 0 0 0 0 0 0 0 0 0 0 0 0 0 0 0 0
0 0 0 0 0 0 0 0 0 0 0 0 0 0 0 0 0 0 0 0 0 0 0 0 0 0 0 0 0 0 0 0 0 0 0 0 0 0 0 0 0 0 0 0
0 0 0 0 0 0 0 0 0 0 0 0 0 0 0 0 0 0 0 0 0 0 0 0 0 0 0 0 0 0 0 0 0 0 0 0 0 0 0 0 0 0 0 0
0 0 0 0 0 0 0 0 0 0 0 0 0 0 0 0 0 0 0 0 0 0 0 0 0 0 0 0 0 0 0 0 0 0 0 0 0 0 0 0 0 0 0 0
0 0 0 0 0 0 0 0 0 0 0 0 0 0 0 0 0 0 0 0 0 0 0 0 0 0 0 0 0 0 0 0 0 0 0 0 0 0 0 0 0 0 0 0
0 0 0 0 0 0 0 0 0 0 0 0 0 0 0 0 0 0 0 0 0 0 0 0 0 0 0 0 0 0 0 0 0 0 0 0 0 0 0 0 0 0 0 0
0 0 0 0 0 0 0 0 0 0 0 0 0 0 0 0 0 0 0 0 0 0 0 0 0 0 0 0 0 0 0 0 0 0 0 0 0 0 0 0 0 0 0 0
0 0 0 0 0 0 0 0 0 0 0 0 0 0 0 0 0 0 0 0 0 0 0 0 0 0 0 0 0 0 0 0 0 0 0 0 0 0 0 0 0 0 0 0
0 0 0 0 0 0 0 0 0 0 0 0 0 0 0 0 0 0 0 0 0 0 0 0 0 0 0 0 0 0 0 0 0 0 0 0 0 0 0 0 0 0 0 0
0 0 0 0 0 0 0 0 0 0 0 0 0 0 0 0 0 0 0 0 0 0 0 0 0 0 0 0 0 0 0 0 0 0 0 0 0 0 0 0 0 0 0 0
0 0 0 0 0 0 0 0 0 0 0 0 0 0 0 0 0 0 0 0 0 0 0 0 0 0 0 0 0 0 0 0 0 0 0 0 0 0 0 0 0 0 0 0
0 0 0 0 0 0 0 0 0 0 0 0 0 0 0 0 0 0 0 0 0 0 0 0 0 0 0 0 0 0 0 0 0 0 0 0 0 0 0 0 0 0 0 0
0 0 0 0 0 0 0 0 0 0 0 0 0 0 0 0 0 0 0 0 0 0 0 0 0 0 0 0 0 0 0 0 0 0 0 0 0 0 0 0 0 0 0 0
0 0 0 0 0 0 0 0 0 0 0 0 0 0 0 0 0 0 0 0 0 0 0 0 0 0 0 0 0 0 0 0 0 0 0 0 0 0 0 0 0 0 0 0
0 0 0 0 0 0 0 0 0 0 0 0 0 0 0 0 0 0 0 0 0 0 0 0 0 0 0 0 0 0 0 0 0 0 0 0 0 0 0 0 0 0 0 0
Height
5544 5548 5553 5558 5563 5569 5573 5578 5583 5588 5592 5598 5603 5607 5611 5616 5620 5624 5628 5633 5636 5640 5644 5648 5651 5654 5657 5660 5663 5667 5670 5672 5675 5677 5679 5681 5682 5683 5684 5684 5684 5684 5683 5682
5540 5544 5548 5552 5557 5562 5566 5571 5576 5580 5586 5590 5595 5600 5604 5608 5612 5616 5620 5624 5628 5632 5635 5639 5642 5645 5648 5651 5654 5657 5659 5662 5664 5667 5669 5670 5672 5672 5673 5674 5674 5673 5672 5671
5537 5540 5543 5547 5552 5556 5561 5565 5570 5574 5580 5583 5587 5592 5596 5600 5604 5608 5612 5615 5619 5623 5626 5629 5632 5635 5638 5641 5644 5647 5649 5652 5654 5656 5658 5659 5660 5661 5662 5663 5663 5662 5662 5661
5531 5535 5538 5544 5546 5550 5555 5559 5563 5567 5572 5576 5580 5584 5588 5592 5596 5600 5603 5607 5611 5614 5617 5620 5623 5626 5629 5631 5634 5637 5639 5642 5644 5645 5647 5648 5649 5650 5651 5652 5652 5651 5651 5649
5526 5529 5532 5537 5541 5544 5548 5553 5556 5560 5565 5568 5572 5576 5580 5584 5587 5591 5595 5598 5602 5605 5608 5611 5614 5616 5619 5622 5624 5627 5629 5631 5633 5635 5636 5637 5639 5639 5640 5640 5640 5640 5639 5638
5521 5524 5527 5533 5535 5537 5542 5545 5549 5553 5557 5561 5564 5569 5573 5576 5579 5583 5586 5590 5593 5596 5599 5602 5605 5607 5610 5612 5615 5617 5619 5621 5622 5624 5625 5627 5628 5628 5629 5629 5629 5628 5627 5626
5517 5519 5522 5526 5529 5532 5537 5540 5542 5545 5549 5553 5556 5561 5565 5568 5571 5574 5578 5581 5584 5587 5590 5593 5595 5598 5600 5603 5605 5607 5609 5611 5612 5613 5615 5616 5617 5617 5618 5618 5617 5617 5616 5615
5512 5514 5519 5520 5523 5526 5529 5532 5535 5538 5541 5545 5548 5552 5556 5559 5563 5566 5569 5572 5575 5578 5581 5584 5586 5588 5591 5593 5595 5597 5599 5600 5602 5603 5604 5605 5606 5606 5606 5606 5606 5605 5604 5603
5508 5512 5513 5514 5516 5519 5522 5525 5528 5531 5533 5537 5540 5544 5547 5551 5554 5558 5561 5564 5567 5569 5572 5574 5577 5579 5581 5583 5585 5587 5589 5590 5591 5593 5594 5594 5595 5595 5595 5595 5595 5594 5594 5593
5502 5504 5506 5508 5510 5513 5515 5517 5520 5523 5526 5529 5532 5536 5539 5543 5546 5549 5552 5555 5558 5561 5563 5565 5567 5569 5571 5573 5575 5576 5578 5580 5581 5582 5583 5584 5584 5584 5584 5584 5584 5583 5583 5581
5496 5498 5500 5502 5504 5506 5508 5510 5513 5515 5518 5521 5525 5528 5531 5534 5537 5541 5544 5547 5549 5552 5554 5556 5558 5560 5562 5563 5565 5566 5568 5569 5570 5571 5572 5573 5573 5573 5573 5573 5573 5572 5571 5570
5490 5492 5494 5496 5498 5500 5502 5504 5506 5508 5511 5514 5516 5520 5523 5526 5529 5532 5535 5538 5540 5543 5545 5547 5549 5550 5552 5553 5555 5556 5558 5559 5560 5561 5562 5562 5562 5562 5562 5562 5562 5561 5560 5559
5484 5485 5487 5489 5491 5493 5495 5497 5499 5501 5504 5506 5509 5512 5515 5518 5521 5524 5526 5529 5531 5534 5536 5537 5539 5541 5542 5544 5545 5547 5548 5549 5550 5551 5551 5552 5552 5552 5552 5552 5551 5550 5550 5549
5478 5480 5481 5483 5484 5486 5488 5490 5492 5494 5496 5498 5501 5504 5506 5509 5512 5515 5517 5520 5522 5525 5527 5528 5530 5531 5533 5534 5536 5537 5538 5539 5540 5541 5541 5541 5542 5542 5542 5542 5541 5540 5539 5538
5473 5474 5475 5476 5478 5479 5481 5483 5485 5487 5488 5490 5493 5495 5498 5501 5503 5506 5508 5511 5513 5515 5517 5519 5521 5522 5523 5525 5526 5527 5528 5529 5530 5531 5531 5531 5532 5532 5532 5531 5531 5530 5530 5529
5467 5468 5469 5470 5471 5473 5474 5476 5478 5479 5481 5483 5485 5487 5490 5492 5494 5497 5499 5502 5504 5506 5508 5510 5511 5513 5514 5516 5517 5518 5518 5519 5520 5521 5521 5521 5521 5521 5521 5521 5521 5520 5520 5519
5463 5463 5464 5465 5466 5467 5468 5470 5471 5472 5474 5476 5478 5480 5482 5484 5486 5488 5490 5492 5494 5496 5498 5500 5502 5503 5505 5506 5507 5508 5509 5510 5510 5511 5511 5511 5511 5511 5511 5511 5511 5510 5510 5510
5458 5459 5459 5460 5461 5462 5463 5464 5465 5466 5467 5469 5471 5473 5475 5477 5479 5481 5482 5484 5486 5487 5489 5490 5492 5494 5495 5497 5498 5499 5500 5500 5501 5501 5501 5501 5501 5501 5501 5501 5501 5500 5500 5500
5454 5455 5455 5455 5456 5457 5458 5458 5459 5460 5461 5462 5464 5466 5468 5469 5471 5473 5475 5476 5478 5479 5481 5482 5483 5485 5486 5487 5488 5489 5490 5490 5491 5491 5491 5491 5491 5491 5491 5491 5491 5491 5491 5491
5451 5451 5451 5451 5451 5452 5453 5453 5454 5454 5455 5456 5458 5460 5461 5463 5464 5466 5467 5469 5470 5471 5472 5474 5475 5476 5477 5478 5479 5480 5480 5481 5481 5482 5482 5482 5482 5482 5482 5482 5482 5483 5483 5483
5447 5447 5447 5447 5447 5447 5447 5448 5448 5449 5449 5450 5452 5453 5454 5456 5457 5458 5460 5461 5462 5463 5465 5466 5467 5468 5469 5470 5471 5472 5472 5472 5473 5473 5473 5473 5473 5474 5473 5474 5474 5475 5475 5475
5442 5442 5442 5442 5442 5442 5442 5442 5442 5442 5443 5444 5445 5446 5447 5448 5450 5451 5452 5454 5455 5456 5457 5459 5460 5461 5462 5463 5463 5464 5464 5465 5465 5465 5465 5465 5465 5466 5466 5466 5467 5467 5468 5468
5437 5437 5437 5437 5436 5436 5436 5436 5436 5436 5437 5437 5438 5439 5440 5441 5442 5444 5445 5446 5448 5449 5450 5451 5452 5453 5454 5455 5456 5457 5457 5457 5457 5458 5458 5458 5458 5458 5459 5459 5460 5460 5461 5461
5432 5431 5431 5431 5431 5430 5430 5430 5430 5430 5430 5430 5431 5432 5433 5434 5436 5437 5438 5439 5440 5442 5443 5444 5445 5446 5447 5448 5449 5449 5450 5450 5451 5451 5451 5451 5452 5452 5452 5453 5453 5453 5454 5454
5426 5425 5425 5425 5424 5424 5424 5424 5423 5423 5424 5424 5425 5425 5426 5428 5429 5430 5431 5432 5434 5435 5436 5437 5438 5439 5440 5441 5442 5442 5443 5444 5444 5445 5445 5446 5446 5446 5447 5447 5447 5447 5447 5447
5420 5420 5419 5419 5418 5418 5418 5417 5417 5417 5417 5418 5418 5419 5420 5421 5422 5423 5425 5426 5427 5428 5430 5431 5432 5433 5434 5434 5435 5436 5437 5438 5438 5439 5439 5440 5440 5441 5441 5441 5441 5441 5441 5441
5414 5414 5413 5413 5412 5412 5411 5411 5411 5411 5411 5412 5412 5413 5414 5415 5416 5417 5419 5420 5421 5422 5424 5425 5426 5427 5428 5429 5430 5431 5431 5432 5433 5433 5434 5435 5435 5436 5436 5436 5436 5436 5436 5437
Wind_Speed
28 30 31 33 35 34 34 35 36 37 38 39 38 37 36 36 37 37 37 38 38 38 38 38 39 40 41 42 43 44 45 46 46 45 45 44 44 44 44 45 44 44 44 44
26 28 30 31 33 33 33 34 34 35 36 36 36 37 37 36 36 37 37 38 38 38 38 38 38 40 41 41 42 42 43 45 45 45 45 45 44 44 45 44 44 44 44 44
26 27 29 30 31 33 34 34 34 34 35 34 35 35 36 37 36 36 37 37 37 38 38 39 39 39 39 40 41 41 42 43 43 44 44 45 45 45 45 44 44 44 44 45
25 27 29 29 29 31 33 33 33 33 34 34 34 34 35 36 36 36 36 37 37 37 37 38 38 38 39 40 40 40 41 42 43 43 44 44 44 45 44 44 44 44 44 45
23 24 27 28 28 29 32 33 33 33 33 33 33 34 34 34 35 35 35 36 36 36 36 36 37 37 37 38 39 40 40 41 42 43 43 43 43 44 44 45 45 45 45 45
23 24 25 26 27 29 31 33 33 33 33 34 33 33 34 34 34 34 34 34 35 35 36 36 36 36 37 37 38 39 39 40 40 41 42 42 42 43 43 44 45 45 45 45
24 24 24 26 27 27 29 31 33 34 33 33 34 34 33 34 34 34 34 34 34 34 35 36 36 37 37 37 38 39 39 40 40 40 41 41 42 42 43 43 44 44 44 44
24 25 25 25 26 27 27 29 31 32 33 34 34 35 34 34 33 33 33 34 34 34 34 35 36 37 38 38 38 39 39 40 40 40 40 40 41 41 41 42 42 42 42 43
23 24 25 25 25 26 27 28 29 30 31 32 33 34 34 34 33 32 32 33 33 33 33 34 35 36 37 37 38 39 39 39 40 40 40 40 40 41 41 41 41 41 41 42
23 23 24 24 25 25 26 28 29 30 30 31 32 32 33 33 33 33 32 32 33 33 33 33 34 35 37 38 38 38 38 38 38 39 40 40 40 40 39 40 40 41 41 41
23 24 25 25 25 25 25 26 26 27 29 30 31 31 32 32 33 33 33 33 33 33 34 34 34 35 35 36 37 37 37 37 38 38 39 39 38 39 39 39 39 39 39 39
23 24 25 26 26 26 25 25 26 26 27 29 30 30 31 31 32 32 32 33 33 33 34 34 34 34 34 34 35 35 36 36 36 37 37 38 38 38 38 38 38 38 39 39
22 23 24 25 26 27 26 26 26 27 28 28 29 30 30 31 32 32 32 32 32 32 32 33 33 34 34 35 35 35 35 35 35 35 36 36 35 36 36 36 37 37 37 37
21 21 22 24 25 26 26 27 27 28 28 28 29 29 30 30 31 31 32 32 32 32 32 32 32 33 33 34 34 35 35 35 35 35 35 35 35 35 35 36 36 35 35 35
20 21 21 22 23 24 25 26 26 27 27 27 27 28 29 30 31 32 32 33 33 33 33 33 33 33 33 34 34 34 34 34 34 34 35 35 35 35 35 36 35 35 35 34
19 20 20 20 21 21 22 24 25 25 25 25 26 27 28 30 31 31 32 33 33 33 33 33 33 33 33 33 33 33 33 33 34 34 35 35 35 35 35 35 35 36 35 34
15 16 17 18 18 19 19 20 22 23 25 25 25 26 27 27 28 29 30 31 32 32 32 32 32 32 32 32 32 32 32 32 33 33 34 34 34 34 34 34 34 34 33 32
13 14 15 16 17 17 18 18 19 20 21 23 24 24 25 26 26 27 27 28 29 29 30 31 32 32 32 32 32 32 32 32 32 32 32 32 33 33 33 32 32 31 31 30
13 13 14 14 16 16 17 17 17 17 18 19 20 21 22 23 24 25 25 26 26 27 28 29 29 30 30 31 31 32 32 32 31 31 31 31 30 30 30 30 30 29 28 28
13 13 13 14 15 16 16 17 17 18 19 19 20 21 22 23 23 24 24 24 25 26 26 26 26 27 27 27 28 28 29 29 29 29 29 29 29 28 27 27 26 25 25 25
13 14 14 14 15 15 16 17 17 18 19 20 21 22 23 24 24 24 24 24 25 25 25 25 25 25 25 25 25 25 26 26 27 27 28 27 26 25 25 24 23 22 22 22
14 15 15 15 15 16 17 17 18 19 20 20 21 22 22 23 23 23 23 24 24 24 24 24 24 25 25 24 24 24 24 24 24 24 24 24 23 23 22 22 22 21 21 20
16 16 16 17 17 18 18 18 19 19 19 20 21 21 21 21 21 22 22 23 23 23 23 23 24 24 24 24 24 23 23 23 23 22 22 21 21 20 20 20 20 21 20 20
17 17 18 18 18 18 18 19 19 19 19 19 19 20 20 20 21 21 22 22 22 22 23 23 23 23 23 22 22 22 22 21 21 20 20 19 19 19 19 18 18 19 19 19
17 17 18 18 18 18 19 19 19 19 19 19 19 19 19 19 19 20 20 21 21 21 21 21 21 21 21 21 21 20 20 20 19 19 19 18 18 17 17 17 17 17 17 17
18 18 18 18 18 18 18 19 19 18 18 18 18 19 19 19 19 19 19 19 19 19 19 19 19 19 19 18 18 18 17 17 17 17 16 16 15 15 15 15 15 14 14 14
18 18 18 18 18 18 18 18 18 18 18 17 17 18 18 18 18 18 18 18 17 17 17 17 17 16 16 16 16 16 16 15 14 14 13 13 13 13 13 13 12 12 12 11
Wind_Direction
225 223 223 222 224 224 226 229 232 233 235 235 237 237 238 238 238 239 240 240 241 241 242 242 244 245 247 247 248 248 250 251 252 254 256 259 262 264 267 270 273 275 277 278
225 225 226 227 225 225 227 229 231 233 235 236 237 236 237 238 239 239 240 241 241 242 243 243 246 247 248 248 249 250 251 253 254 256 258 260 262 264 267 270 272 274 276 278
231 232 231 230 228 228 229 231 232 234 236 238 238 237 238 238 240 240 241 242 242 243 244 245 247 248 248 249 249 251 252 254 255 257 259 261 263 265 266 269 271 273 276 279
235 235 234 231 229 230 232 234 235 236 237 239 240 239 239 240 240 241 242 242 243 244 244 246 248 249 249 250 250 251 252 254 256 257 259 261 263 265 266 268 270 272 276 278
236 234 233 231 233 234 235 235 236 238 238 240 241 241 240 240 241 242 243 243 243 245 245 246 248 249 250 250 250 252 253 254 256 258 260 262 263 265 267 269 271 273 276 278
238 237 236 235 237 237 237 238 237 238 239 240 241 242 241 241 242 242 244 244 244 245 246 246 248 249 250 250 250 252 253 255 256 259 260 262 264 266 268 270 272 274 276 278
241 241 240 238 239 240 240 239 239 240 241 241 241 241 241 241 242 243 244 244 245 246 247 248 248 248 249 250 250 252 254 255 257 259 261 263 265 268 270 272 273 274 276 278
244 244 243 241 242 241 241 240 240 241 242 242 241 241 240 241 241 242 243 245 246 246 248 249 249 250 250 250 251 252 254 256 258 259 262 264 266 269 271 272 273 274 276 278
245 245 244 245 245 244 242 241 242 243 243 242 241 240 240 241 241 241 242 244 246 247 248 249 250 250 251 252 253 254 255 257 258 260 262 265 266 268 271 272 273 275 277 279
244 243 243 244 245 245 244 243 243 243 243 243 241 240 240 242 243 242 242 243 245 247 248 250 251 252 253 253 254 255 255 257 259 261 263 265 267 269 271 272 274 276 277 279
246 245 245 244 245 246 246 244 244 244 244 243 242 240 240 241 242 243 244 245 246 248 251 252 253 254 255 256 256 257 257 258 259 262 264 266 268 269 271 272 275 276 277 278
248 248 248 247 247 247 246 245 243 243 244 244 242 241 241 242 242 243 244 246 247 249 250 252 254 255 257 257 257 257 259 260 261 263 265 267 269 271 272 273 274 276 277 277
250 249 250 250 250 248 247 246 246 247 246 246 244 242 243 244 244 244 245 246 248 249 250 251 253 255 257 257 258 259 260 261 263 264 266 268 270 272 273 275 277 277 278 279
251 251 251 251 252 251 249 248 249 249 247 245 244 243 243 244 245 245 245 245 247 248 249 251 253 255 255 256 257 259 261 263 264 265 267 268 270 271 272 274 275 276 278 280
255 253 253 252 251 250 250 249 249 247 247 246 244 243 243 244 245 245 245 246 248 250 251 252 253 254 255 256 257 259 260 262 264 265 267 268 269 270 271 273 273 275 277 278
259 256 254 252 251 251 250 249 248 247 248 247 246 244 244 244 245 245 246 247 249 251 252 252 253 254 256 257 258 259 261 262 264 266 268 269 270 271 272 272 272 274 275 274
259 257 255 252 250 250 249 250 248 247 248 248 247 245 244 244 245 246 247 247 248 249 250 251 253 254 256 258 260 261 262 263 266 268 269 270 270 271 272 272 274 275 274 273
258 257 255 251 249 250 251 252 250 248 248 247 246 244 243 244 246 247 248 249 250 250 252 253 255 256 258 260 261 261 263 265 267 268 269 270 272 273 273 274 276 274 272 273
263 262 262 258 254 254 255 256 256 254 252 249 246 245 244 246 247 248 249 250 251 252 253 254 256 258 259 260 262 262 264 266 267 269 270 272 274 274 274 275 274 273 273 273
267 268 267 264 260 259 259 259 260 258 256 252 250 249 250 250 250 251 252 252 252 253 253 254 255 257 259 261 262 263 264 265 266 268 270 272 273 274 275 273 272 271 272 273
270 271 270 268 266 264 263 263 262 260 258 255 253 253 252 251 251 251 252 253 253 253 253 254 255 257 259 261 263 264 265 267 268 270 270 271 271 272 272 270 269 270 272 273
272 272 271 270 269 268 268 267 265 262 260 258 256 256 255 254 253 253 253 254 253 253 253 254 256 258 259 261 262 264 266 268 270 271 271 271 270 270 268 267 267 269 271 273
275 275 275 273 271 271 270 269 268 266 263 261 258 257 256 254 252 253 254 253 253 253 254 255 257 258 259 261 262 264 266 268 269 270 271 270 268 268 267 266 267 268 271 273
277 277 277 275 273 272 272 272 270 268 266 263 260 257 255 254 253 253 253 253 254 254 255 256 258 258 259 260 262 263 264 265 266 267 269 267 267 267 267 267 268 270 271 272
278 277 277 276 275 274 274 273 273 270 266 263 260 257 255 254 253 253 253 252 253 254 255 257 258 258 259 260 260 260 262 263 265 267 265 263 266 267 267 266 268 270 271 270
279 279 279 279 278 277 276 275 273 270 266 263 260 257 256 255 254 253 251 251 253 253 254 256 257 258 259 258 257 258 261 264 264 262 259 261 264 265 265 265 267 268 268 267
279 279 279 279 279 279 278 277 273 267 264 262 260 258 257 256 255 253 250 250 252 253 254 255 255 255 255 254 255 257 259 258 257 255 256 259 262 265 265 264 263 263 263 260